Date String (YYYY-MM-DD hh:mm:ss) UTC,Instrument flags,Ambient pressure (hPa),Sample flow (lpm),Bypass flow (lpm),Sample temperature (°C),Ambient temperature (°C),ASC tube jacket temperature (°C),LED temperature (°C),Box temperature (°C),Sample RH (%),Span deviation,Mass concentration (μg/m³),Mass concentration (μg/m³),Mass concentration (μg/m³)
DateTimeUTC,F1_M11,P_M11,Q1_M11,Q2_M11,T1_M11,T2_M11,T3_M11,T4_M11,T5_M11,U1_M11,ZSPAN_M11,X0_M11,X2_M11,X1_M11
2022-01-25 23:00:00,,0830.5,5.01,0.00,23.4,22.6,00.0,32.3,25.2,10.2,0000.0,0002.48,0002.38,0002.24
2022-01-25 23:01:00,,0830.5,5.00,0.00,23.4,22.6,00.0,32.3,25.2,10.3,0000.0,0002.57,0002.43,0002.26
2022-01-25 23:02:00,,0830.5,4.99,0.00,23.4,22.6,00.0,32.3,25.1,10.3,0000.0,0002.57,0002.45,0002.29
2022-01-25 23:03:00,,0830.5,5.00,0.00,23.4,22.5,00.0,32.3,25.1,10.4,0000.0,0002.64,0002.50,0002.32
2022-01-25 23:04:00,,0830.5,5.01,0.00,23.3,22.5,00.0,32.3,25.1,10.4,0000.0,0002.65,0002.54,0002.35
2022-01-25 23:05:00,,0830.5,5.01,0.00,23.3,22.5,00.0,32.3,25.0,10.4,0000.0,0002.60,0002.52,0002.36
2022-01-25 23:06:00,,0830.5,4.99,0.00,23.3,22.5,00.0,32.3,25.0,10.4,0000.0,0002.62,0002.54,0002.38
2022-01-25 23:07:00,,0830.5,5.00,0.00,23.3,22.5,00.0,32.3,25.0,10.5,0000.0,0002.61,0002.53,0002.40
2022-01-25 23:08:00,,0830.5,5.00,0.00,23.3,22.5,00.0,32.2,25.0,10.5,0000.0,0002.64,0002.56,0002.42
2022-01-25 23:09:00,,0830.5,5.00,0.00,23.3,22.5,00.0,32.2,25.0,10.5,0000.0,0002.67,0002.57,0002.44
2022-01-25 23:10:00,,0830.5,5.01,0.00,23.3,22.5,00.0,32.2,25.0,10.5,0000.0,0002.77,0002.59,0002.45
2022-01-25 23:11:00,,0830.5,5.00,0.00,23.2,22.4,00.0,32.2,25.0,10.5,0000.0,0002.81,0002.61,0002.46
2022-01-25 23:12:00,,0830.5,5.00,0.00,23.2,22.3,00.0,32.2,25.0,10.5,0000.0,0002.76,0002.60,0002.46
2022-01-25 23:13:00,,0830.5,4.99,0.00,23.2,22.2,00.0,32.2,24.9,10.5,0000.0,0003.00,0002.61,0002.44
2022-01-25 23:14:00,,0830.5,4.99,0.00,23.1,22.1,00.0,32.2,24.8,10.5,0000.0,0003.24,0002.61,0002.44
2022-01-25 23:15:00,,0830.5,5.01,0.00,23.1,22.1,00.0,32.1,24.8,10.6,0000.0,0003.32,0002.62,0002.45
2022-01-25 23:16:00,,0830.5,5.00,0.00,23.1,22.1,00.0,32.1,24.8,10.6,0000.0,0003.36,0002.63,0002.46
2022-01-25 23:17:00,,0830.5,5.00,0.00,23.1,22.1,00.0,32.1,24.8,10.6,0000.0,0003.36,0002.64,0002.46
2022-01-25 23:18:00,,0830.6,5.00,0.00,23.1,22.1,00.0,32.1,24.8,10.7,0000.0,0003.34,0002.64,0002.46
2022-01-25 23:19:00,,0830.6,5.00,0.00,23.1,22.2,00.0,32.1,24.8,10.7,0000.0,0003.32,0002.63,0002.46
2022-01-25 23:20:00,,0830.5,5.00,0.00,23.0,22.2,00.0,32.1,24.8,10.6,0000.0,0003.28,0002.60,0002.45
2022-01-25 23:21:00,,0830.5,5.01,0.00,23.0,22.3,00.0,32.0,24.8,10.7,0000.0,0003.20,0002.60,0002.43
2022-01-25 23:22:00,,0830.5,5.00,0.00,23.0,22.3,00.0,32.0,24.8,10.7,0000.0,0003.18,0002.59,0002.44
2022-01-25 23:23:00,,0830.5,4.99,0.00,23.0,22.3,00.0,32.0,24.8,10.7,0000.0,0003.19,0002.60,0002.44
2022-01-25 23:24:00,,0830.5,4.99,0.00,23.0,22.3,00.0,32.0,24.8,10.7,0000.0,0003.10,0002.58,0002.46
2022-01-25 23:25:00,,0830.5,5.01,0.00,23.0,22.3,00.0,32.0,24.8,10.7,0000.0,0002.73,0002.58,0002.46
2022-01-25 23:26:00,,0830.5,5.01,0.00,23.0,22.3,00.0,32.0,24.8,10.7,0000.0,0002.72,0002.59,0002.47
2022-01-25 23:27:00,,0830.5,4.99,0.00,23.0,22.4,00.0,32.0,24.8,10.7,0000.0,0002.61,0002.57,0002.47
2022-01-25 23:28:00,,0830.5,4.99,0.00,23.0,22.4,00.0,32.0,24.8,10.8,0000.0,0002.61,0002.56,0002.46
2022-01-25 23:29:00,,0830.5,5.01,0.00,23.0,22.4,00.0,31.9,24.8,10.8,0000.0,0002.60,0002.56,0002.46
2022-01-25 23:30:00,,0830.5,5.01,0.00,23.0,22.4,00.0,31.9,24.8,10.7,0000.0,0002.65,0002.58,0002.47
2022-01-25 23:31:00,,0830.5,4.99,0.00,23.0,22.4,00.0,31.9,24.8,10.7,0000.0,0002.79,0002.63,0002.48
2022-01-25 23:32:00,,0830.5,4.99,0.00,23.0,22.3,00.0,31.9,24.8,10.7,0000.0,0002.78,0002.63,0002.49
2022-01-25 23:33:00,,0830.5,5.00,0.00,23.0,22.4,00.0,31.9,24.8,10.7,0000.0,0002.75,0002.62,0002.49
2022-01-25 23:34:00,,0830.5,5.01,0.00,23.0,22.3,00.0,31.9,24.7,10.7,0000.0,0002.73,0002.61,0002.49
2022-01-25 23:35:00,,0830.5,5.00,0.00,23.0,22.3,00.0,31.9,24.7,10.7,0000.0,0002.75,0002.64,0002.51
2022-01-25 23:36:00,,0830.5,4.99,0.00,23.0,22.3,00.0,31.9,24.7,10.8,0000.0,0002.80,0002.67,0002.53
2022-01-25 23:37:00,,0830.5,4.99,0.00,22.9,22.2,00.0,31.9,24.7,10.7,0000.0,0002.78,0002.69,0002.55
2022-01-25 23:38:00,,0830.5,5.00,0.00,22.9,22.2,00.0,31.9,24.6,10.7,0000.0,0002.78,0002.70,0002.57
2022-01-25 23:39:00,,0830.5,4.99,0.00,22.9,22.2,00.0,31.9,24.6,10.7,0000.0,0002.78,0002.73,0002.59
2022-01-25 23:40:00,,0830.5,5.01,0.00,22.8,22.1,00.0,31.9,24.5,10.7,0000.0,0002.80,0002.75,0002.61
2022-01-25 23:41:00,,0830.5,5.00,0.00,22.8,22.1,00.0,31.9,24.5,10.7,0000.0,0002.78,0002.76,0002.64
2022-01-25 23:42:00,,0830.5,5.01,0.00,22.8,22.0,00.0,31.8,24.4,10.7,0000.0,0002.72,0002.77,0002.67
2022-01-25 23:43:00,,0830.5,5.01,0.00,22.7,22.0,00.0,31.8,24.4,10.7,0000.0,0002.74,0002.79,0002.69
2022-01-25 23:44:00,,0830.5,5.00,0.00,22.7,21.9,00.0,31.8,24.3,10.7,0000.0,0002.78,0002.83,0002.70
2022-01-25 23:45:00,,0830.5,5.00,0.00,22.6,21.9,00.0,31.8,24.3,10.7,0000.0,0002.81,0002.84,0002.71
2022-01-25 23:46:00,,0830.5,5.00,0.00,22.6,21.9,00.0,31.8,24.3,10.7,0000.0,0002.76,0002.81,0002.69
2022-01-25 23:47:00,,0830.5,5.00,0.00,22.6,21.8,00.0,31.7,24.2,10.7,0000.0,0002.73,0002.80,0002.69
2022-01-25 23:48:00,,0830.5,4.99,0.00,22.5,21.7,00.0,31.7,24.1,10.7,0000.0,0002.76,0002.79,0002.67
2022-01-25 23:49:00,,0830.5,4.99,0.00,22.5,21.7,00.0,31.7,24.1,10.8,0000.0,0002.75,0002.77,0002.65
2022-01-25 23:50:00,,0830.5,4.99,0.00,22.4,21.6,00.0,31.6,24.0,10.8,0000.0,0002.74,0002.77,0002.65
2022-01-25 23:51:00,,0830.5,5.00,0.00,22.4,21.5,00.0,31.6,24.0,10.8,0000.0,0002.74,0002.76,0002.64
2022-01-25 23:52:00,,0830.5,5.00,0.00,22.3,21.5,00.0,31.6,23.9,10.8,0000.0,0002.78,0002.75,0002.61
2022-01-25 23:53:00,,0830.5,5.00,0.00,22.3,21.4,00.0,31.5,23.9,10.9,0000.0,0002.72,0002.70,0002.58
2022-01-25 23:54:00,,0830.5,5.00,0.00,22.3,21.4,00.0,31.5,23.8,10.9,0000.0,0002.69,0002.68,0002.55
2022-01-25 23:55:00,,0830.5,5.01,0.00,22.2,21.4,00.0,31.5,23.8,10.9,0000.0,0002.69,0002.65,0002.53
2022-01-25 23:56:00,,0830.4,5.00,0.00,22.2,21.3,00.0,31.5,23.8,10.9,0000.0,0002.65,0002.63,0002.51
2022-01-25 23:57:00,,0830.4,5.00,0.00,22.2,21.3,00.0,31.4,23.7,10.9,0000.0,0002.95,0002.60,0002.49
2022-01-25 23:58:00,,0830.4,5.00,0.00,22.1,21.3,00.0,31.4,23.7,10.9,0000.0,0003.90,0002.56,0002.46
2022-01-25 23:59:00,,0830.4,4.99,0.00,22.1,21.2,00.0,31.3,23.7,10.9,0000.0,0003.90,0002.52,0002.43
